SAS767 EKCH-LKPR

Flight info

Callsign SAS767
Flight time 0h 59m
Altitude 39000
Route SALLO M44 KOGIM M725 MASOR DCT LUROS M725 HDO DCT GOLOP
Aircraft A20N/M-SDE2E3FGHIRWXY/LB1

Departure

Time 2026-05-06 17:25
Airport Copenhagen Kastrup Airport (EKCH)

Arrival

Time 2026-05-06 18:25
Airport Václav Havel Airport Prague (LKPR)
Time Latitude Longitude Altitude Speed Heading
2026-05-06 16:59 55.62584 12.64562 23 ft 0 kts 344°
2026-05-06 17:02 55.62584 12.64563 23 ft 0 kts 344°
2026-05-06 17:06 55.62583 12.64563 23 ft 0 kts 344°
2026-05-06 17:09 55.62579 12.64565 23 ft 1 kts 344°
2026-05-06 17:09 55.62571 12.64569 27 ft 1 kts 344°
2026-05-06 17:09 55.62564 12.64573 27 ft 1 kts 344°
2026-05-06 17:09 55.62557 12.64576 25 ft 1 kts 344°
2026-05-06 17:10 55.62550 12.64580 24 ft 1 kts 344°
2026-05-06 17:10 55.62542 12.64583 25 ft 1 kts 342°
2026-05-06 17:10 55.62535 12.64588 28 ft 1 kts 327°
2026-05-06 17:10 55.62529 12.64595 27 ft 1 kts 312°
2026-05-06 17:11 55.62524 12.64605 27 ft 1 kts 297°
2026-05-06 17:11 55.62521 12.64617 27 ft 1 kts 282°
2026-05-06 17:11 55.62520 12.64630 27 ft 1 kts 268°
2026-05-06 17:11 55.62520 12.64643 27 ft 1 kts 253°
2026-05-06 17:12 55.62522 12.64656 26 ft 1 kts 239°
2026-05-06 17:12 55.62527 12.64666 27 ft 1 kts 218°
2026-05-06 17:12 55.62524 12.64665 27 ft 1 kts 213°
2026-05-06 17:12 55.62518 12.64659 28 ft 1 kts 208°
2026-05-06 17:13 55.62512 12.64655 26 ft 1 kts 199°
2026-05-06 17:13 55.62506 12.64655 28 ft 0 kts 181°
2026-05-06 17:15 55.62436 12.64661 25 ft 11 kts 173°
2026-05-06 17:16 55.62350 12.64679 26 ft 11 kts 172°
2026-05-06 17:16 55.62330 12.64701 27 ft 3 kts 127°
2026-05-06 17:16 55.62313 12.64747 26 ft 6 kts 122°
2026-05-06 17:16 55.62290 12.64782 24 ft 5 kts 157°
2026-05-06 17:17 55.62251 12.64796 26 ft 7 kts 179°
2026-05-06 17:17 55.62212 12.64772 25 ft 0 kts 211°
2026-05-06 17:19 55.62190 12.64749 25 ft 9 kts 211°
2026-05-06 17:19 55.62124 12.64672 27 ft 13 kts 215°
2026-05-06 17:20 55.62038 12.64570 25 ft 16 kts 213°
2026-05-06 17:20 55.61931 12.64499 23 ft 16 kts 178°
2026-05-06 17:20 55.61822 12.64536 26 ft 17 kts 168°
2026-05-06 17:20 55.61703 12.64565 23 ft 17 kts 188°
2026-05-06 17:21 55.61602 12.64479 25 ft 16 kts 212°
2026-05-06 17:21 55.61505 12.64367 25 ft 17 kts 213°
2026-05-06 17:21 55.61397 12.64245 26 ft 19 kts 212°
2026-05-06 17:21 55.61282 12.64117 24 ft 17 kts 204°
2026-05-06 17:22 55.61200 12.64170 25 ft 14 kts 117°
2026-05-06 17:22 55.61205 12.64337 26 ft 15 kts 72°
2026-05-06 17:22 55.61218 12.64405 24 ft 0 kts 70°
2026-05-06 17:23 55.61220 12.64415 23 ft 2 kts 70°
2026-05-06 17:23 55.61230 12.64464 24 ft 6 kts 69°
2026-05-06 17:24 55.61250 12.64560 25 ft 13 kts 71°
2026-05-06 17:24 55.61288 12.64733 26 ft 17 kts 63°
2026-05-06 17:24 55.61355 12.64918 27 ft 19 kts 43°
2026-05-06 17:24 55.61581 12.65261 25 ft 85 kts 40°
2026-05-06 17:25 55.62229 12.66254 33 ft 157 kts 41°
2026-05-06 17:25 55.63166 12.67531 508 ft 182 kts 34°
2026-05-06 17:25 55.64405 12.68892 645 ft 232 kts 30°
2026-05-06 17:25 55.65637 12.70609 2076 ft 221 kts 38°
2026-05-06 17:26 55.66782 12.72460 3125 ft 224 kts 40°
2026-05-06 17:26 55.67911 12.74305 3572 ft 233 kts 44°
2026-05-06 17:26 55.69081 12.76325 3615 ft 234 kts 45°
2026-05-06 17:26 55.70183 12.78451 3617 ft 241 kts 59°
2026-05-06 17:27 55.70666 12.81323 3634 ft 256 kts 88°
2026-05-06 17:27 55.70316 12.84399 3735 ft 257 kts 114°
2026-05-06 17:27 55.69226 12.86940 3946 ft 265 kts 140°
2026-05-06 17:27 55.67588 12.88447 4158 ft 268 kts 159°
2026-05-06 17:28 55.65833 12.89549 4361 ft 268 kts 159°
2026-05-06 17:28 55.64067 12.90661 4560 ft 269 kts 159°
2026-05-06 17:28 55.62296 12.91750 4784 ft 269 kts 163°
2026-05-06 17:28 55.60518 12.92719 4985 ft 272 kts 159°
2026-05-06 17:29 55.58745 12.93961 5314 ft 276 kts 156°
2026-05-06 17:29 55.56965 12.95271 6247 ft 277 kts 157°
2026-05-06 17:29 55.55166 12.96571 7216 ft 281 kts 158°
2026-05-06 17:29 55.53339 12.97854 8171 ft 285 kts 160°
2026-05-06 17:30 55.51474 12.99134 9128 ft 288 kts 161°
2026-05-06 17:30 55.49589 13.00408 10093 ft 292 kts 161°
2026-05-06 17:30 55.48306 13.01269 10479 ft 304 kts 162°
2026-05-06 17:30 55.46253 13.02636 10825 ft 327 kts 162°
2026-05-06 17:31 55.43333 13.04583 11525 ft 345 kts 162°
2026-05-06 17:31 55.41075 13.06094 12370 ft 349 kts 162°
2026-05-06 17:31 55.39531 13.07127 12945 ft 352 kts 162°
2026-05-06 17:31 55.37249 13.08651 13745 ft 357 kts 162°
2026-05-06 17:32 55.34915 13.10206 14499 ft 360 kts 162°
2026-05-06 17:32 55.32559 13.11772 15237 ft 364 kts 162°
2026-05-06 17:32 55.30276 13.13287 15959 ft 367 kts 163°
2026-05-06 17:32 55.27841 13.14601 16674 ft 366 kts 172°
2026-05-06 17:33 55.25324 13.15472 17384 ft 370 kts 173°
2026-05-06 17:33 55.22797 13.16331 18105 ft 373 kts 173°
2026-05-06 17:33 55.20214 13.17177 18727 ft 377 kts 173°
2026-05-06 17:33 55.17621 13.18000 19355 ft 380 kts 174°
2026-05-06 17:34 55.15003 13.18817 19957 ft 383 kts 174°
2026-05-06 17:34 55.12395 13.19623 20534 ft 387 kts 174°
2026-05-06 17:34 55.09737 13.20443 21151 ft 390 kts 174°
2026-05-06 17:34 55.07051 13.21270 21731 ft 394 kts 174°
2026-05-06 17:35 55.04337 13.22106 22317 ft 397 kts 174°
2026-05-06 17:35 55.01605 13.22946 22906 ft 400 kts 174°
2026-05-06 17:35 54.98851 13.23791 23478 ft 404 kts 174°
2026-05-06 17:36 54.93289 13.25495 24473 ft 408 kts 174°
2026-05-06 17:36 54.90475 13.26355 24976 ft 411 kts 174°
2026-05-06 17:36 54.87653 13.27216 25451 ft 413 kts 174°
2026-05-06 17:36 54.84809 13.28083 25933 ft 415 kts 174°
2026-05-06 17:37 54.81992 13.28941 26385 ft 417 kts 174°
2026-05-06 17:37 54.79118 13.29814 26830 ft 420 kts 174°
2026-05-06 17:37 54.76231 13.30690 27282 ft 422 kts 174°
2026-05-06 17:37 54.73332 13.31568 27718 ft 424 kts 174°
2026-05-06 17:38 54.70420 13.32450 28143 ft 425 kts 174°
2026-05-06 17:38 54.67491 13.33334 28560 ft 427 kts 174°
2026-05-06 17:38 54.64554 13.34219 28951 ft 429 kts 174°
2026-05-06 17:38 54.61603 13.35108 29350 ft 431 kts 174°
2026-05-06 17:39 54.58649 13.35996 29738 ft 432 kts 174°
2026-05-06 17:39 54.55707 13.36879 30099 ft 434 kts 174°
2026-05-06 17:39 54.52722 13.37773 30421 ft 436 kts 174°
2026-05-06 17:39 54.49723 13.38671 30729 ft 438 kts 174°
2026-05-06 17:40 54.46713 13.39570 31050 ft 439 kts 174°
2026-05-06 17:40 54.43764 13.40451 31441 ft 439 kts 174°
2026-05-06 17:40 54.40689 13.41369 31873 ft 438 kts 174°
2026-05-06 17:40 54.37678 13.42267 32293 ft 437 kts 174°
2026-05-06 17:41 54.34690 13.43156 32694 ft 436 kts 175°
2026-05-06 17:41 54.31738 13.44032 33087 ft 435 kts 175°
2026-05-06 17:41 54.28753 13.44916 33478 ft 434 kts 175°
2026-05-06 17:41 54.25776 13.45798 33862 ft 433 kts 175°
2026-05-06 17:42 54.22806 13.46675 34168 ft 432 kts 175°
2026-05-06 17:42 54.19841 13.47549 34437 ft 432 kts 175°
2026-05-06 17:42 54.16885 13.48418 34702 ft 432 kts 175°
2026-05-06 17:42 54.13923 13.49289 34951 ft 432 kts 175°
2026-05-06 17:43 54.10951 13.50162 35202 ft 432 kts 175°
2026-05-06 17:43 54.08022 13.51021 35451 ft 432 kts 175°
2026-05-06 17:43 54.05060 13.51888 35685 ft 432 kts 175°
2026-05-06 17:43 54.02095 13.52756 35905 ft 432 kts 175°
2026-05-06 17:44 53.99125 13.53623 36148 ft 432 kts 175°
2026-05-06 17:44 53.96159 13.54488 36378 ft 432 kts 175°
2026-05-06 17:44 53.93192 13.55352 36594 ft 432 kts 175°
2026-05-06 17:44 53.90226 13.56214 36800 ft 432 kts 175°
2026-05-06 17:45 53.87266 13.57074 37008 ft 432 kts 175°
2026-05-06 17:45 53.84304 13.57933 37215 ft 432 kts 175°
2026-05-06 17:45 53.81343 13.58790 37415 ft 432 kts 175°
2026-05-06 17:45 53.78376 13.59648 37607 ft 432 kts 175°
2026-05-06 17:46 53.75413 13.60502 37779 ft 432 kts 175°
2026-05-06 17:46 53.72443 13.61358 37959 ft 432 kts 175°
2026-05-06 17:46 53.69483 13.62210 38115 ft 432 kts 175°
2026-05-06 17:46 53.66563 13.63049 38275 ft 432 kts 175°
2026-05-06 17:47 53.63585 13.63903 38445 ft 432 kts 175°
2026-05-06 17:47 53.60610 13.64756 38572 ft 433 kts 175°
2026-05-06 17:47 53.57644 13.65604 38695 ft 433 kts 175°
2026-05-06 17:47 53.54700 13.66445 38800 ft 433 kts 175°
2026-05-06 17:48 53.48748 13.68143 38869 ft 433 kts 175°
2026-05-06 17:48 53.42816 13.69830 38867 ft 433 kts 175°
2026-05-06 17:49 53.36867 13.71517 38870 ft 433 kts 175°
2026-05-06 17:49 53.30923 13.73198 38861 ft 432 kts 175°
2026-05-06 17:50 53.24991 13.74871 38852 ft 433 kts 175°
2026-05-06 17:50 53.19092 13.76530 38850 ft 432 kts 175°
2026-05-06 17:51 53.13149 13.78196 38869 ft 432 kts 175°
2026-05-06 17:51 53.07212 13.79856 38864 ft 432 kts 175°
2026-05-06 17:52 53.01273 13.81512 38851 ft 432 kts 175°
2026-05-06 17:52 52.95419 13.83141 38855 ft 429 kts 175°
2026-05-06 17:53 52.89540 13.84770 38849 ft 426 kts 174°
2026-05-06 17:53 52.83681 13.86389 38839 ft 427 kts 174°
2026-05-06 17:54 52.77809 13.88007 38835 ft 428 kts 174°
2026-05-06 17:54 52.71930 13.89625 38835 ft 428 kts 174°
2026-05-06 17:55 52.66049 13.91238 38842 ft 428 kts 174°
2026-05-06 17:55 52.60209 13.92836 38704 ft 427 kts 174°
2026-05-06 17:56 52.57281 13.93636 38476 ft 427 kts 174°
2026-05-06 17:56 52.54350 13.94435 38195 ft 428 kts 174°
2026-05-06 17:56 52.51412 13.95235 37914 ft 427 kts 175°
2026-05-06 17:56 52.48471 13.96035 37642 ft 427 kts 175°
2026-05-06 17:57 52.45572 13.96822 37365 ft 427 kts 175°
2026-05-06 17:57 52.42638 13.97618 37110 ft 428 kts 175°
2026-05-06 17:57 52.39716 13.98408 36846 ft 428 kts 175°
2026-05-06 17:57 52.36782 13.99202 36584 ft 425 kts 175°
2026-05-06 17:58 52.33867 13.99991 36318 ft 423 kts 175°
2026-05-06 17:58 52.30960 14.00775 36057 ft 423 kts 175°
2026-05-06 17:58 52.28059 14.01556 35814 ft 422 kts 175°
2026-05-06 17:58 52.25205 14.02324 35562 ft 421 kts 175°
2026-05-06 17:59 52.22318 14.03099 35310 ft 420 kts 175°
2026-05-06 17:59 52.19430 14.03875 35064 ft 419 kts 175°
2026-05-06 17:59 52.16557 14.04645 34890 ft 418 kts 175°
2026-05-06 17:59 52.13690 14.05413 34815 ft 418 kts 175°
2026-05-06 18:00 52.07938 14.06949 34808 ft 419 kts 175°
2026-05-06 18:00 52.02178 14.08484 34802 ft 419 kts 175°
2026-05-06 18:01 51.96421 14.10013 34799 ft 419 kts 175°
2026-05-06 18:01 51.90678 14.11536 34797 ft 419 kts 175°
2026-05-06 18:02 51.84948 14.13051 34468 ft 418 kts 176°
2026-05-06 18:02 51.82080 14.13809 34231 ft 417 kts 176°
2026-05-06 18:02 51.79221 14.14564 33991 ft 416 kts 176°
2026-05-06 18:03 51.76359 14.15317 33743 ft 416 kts 176°
2026-05-06 18:03 51.73512 14.16064 33462 ft 416 kts 176°
2026-05-06 18:03 51.70664 14.16810 33162 ft 416 kts 176°
2026-05-06 18:03 51.67790 14.17561 32485 ft 419 kts 175°
2026-05-06 18:04 51.64917 14.18309 31609 ft 424 kts 175°
2026-05-06 18:04 51.62065 14.19054 30914 ft 422 kts 175°
2026-05-06 18:04 51.59175 14.19812 30397 ft 416 kts 175°
2026-05-06 18:04 51.56329 14.20556 29828 ft 411 kts 174°
2026-05-06 18:05 51.53518 14.21290 29228 ft 406 kts 174°
2026-05-06 18:05 51.50749 14.22011 28675 ft 400 kts 174°
2026-05-06 18:05 51.48018 14.22722 28133 ft 394 kts 175°
2026-05-06 18:05 51.45328 14.23420 27593 ft 389 kts 175°
2026-05-06 18:06 51.42660 14.24110 27058 ft 384 kts 174°
2026-05-06 18:06 51.40036 14.24789 26527 ft 380 kts 174°
2026-05-06 18:06 51.37471 14.25451 26022 ft 376 kts 174°
2026-05-06 18:06 51.34901 14.26114 25490 ft 373 kts 174°
2026-05-06 18:07 51.32340 14.26774 24978 ft 369 kts 174°
2026-05-06 18:07 51.29807 14.27426 24456 ft 367 kts 174°
2026-05-06 18:07 51.27297 14.28071 23940 ft 364 kts 174°
2026-05-06 18:07 51.24801 14.28712 23416 ft 362 kts 174°
2026-05-06 18:08 51.22322 14.29348 22865 ft 359 kts 174°
2026-05-06 18:08 51.19867 14.29979 22354 ft 355 kts 174°
2026-05-06 18:08 51.17478 14.30592 21849 ft 351 kts 174°
2026-05-06 18:08 51.15078 14.31207 21348 ft 348 kts 174°
2026-05-06 18:09 51.12693 14.31817 20842 ft 345 kts 174°
2026-05-06 18:09 51.10328 14.32421 20343 ft 348 kts 174°
2026-05-06 18:09 51.07846 14.33045 19817 ft 372 kts 174°
2026-05-06 18:09 51.05244 14.33702 19260 ft 382 kts 174°
2026-05-06 18:10 51.02648 14.34368 19066 ft 370 kts 174°
2026-05-06 18:10 51.00138 14.35017 18552 ft 365 kts 174°
2026-05-06 18:10 50.97602 14.35661 17495 ft 375 kts 174°
2026-05-06 18:10 50.95010 14.36317 16691 ft 376 kts 174°
2026-05-06 18:11 50.92481 14.36985 16219 ft 369 kts 171°
2026-05-06 18:11 50.90837 14.37580 16041 ft 361 kts 170°
2026-05-06 18:11 50.87642 14.38786 15701 ft 346 kts 170°
2026-05-06 18:11 50.85285 14.39674 15446 ft 349 kts 170°
2026-05-06 18:12 50.82922 14.40556 15189 ft 349 kts 170°
2026-05-06 18:12 50.80564 14.41435 14943 ft 347 kts 170°
2026-05-06 18:12 50.78219 14.42306 14705 ft 345 kts 170°
2026-05-06 18:12 50.75880 14.43174 14454 ft 345 kts 170°
2026-05-06 18:13 50.73546 14.44039 14201 ft 344 kts 170°
2026-05-06 18:13 50.71225 14.44898 13973 ft 343 kts 170°
2026-05-06 18:13 50.68914 14.45467 13705 ft 337 kts 182°
2026-05-06 18:13 50.66627 14.44915 13214 ft 322 kts 202°
2026-05-06 18:14 50.64749 14.43253 12744 ft 309 kts 217°
2026-05-06 18:14 50.63042 14.41253 12289 ft 299 kts 217°
2026-05-06 18:14 50.61360 14.39260 11846 ft 317 kts 217°
2026-05-06 18:14 50.59513 14.37065 11350 ft 343 kts 217°
2026-05-06 18:15 50.57569 14.34757 10923 ft 352 kts 217°
2026-05-06 18:15 50.55665 14.32503 10658 ft 341 kts 217°
2026-05-06 18:15 50.53772 14.30274 10017 ft 333 kts 217°
2026-05-06 18:15 50.51936 14.28110 9372 ft 325 kts 217°
2026-05-06 18:16 50.50180 14.26038 9119 ft 305 kts 217°
2026-05-06 18:16 50.48545 14.24107 8991 ft 283 kts 217°
2026-05-06 18:16 50.47024 14.22315 8854 ft 265 kts 217°
2026-05-06 18:16 50.45530 14.20554 8756 ft 270 kts 217°
2026-05-06 18:17 50.44045 14.18806 8742 ft 269 kts 217°
2026-05-06 18:17 50.42550 14.17048 8743 ft 269 kts 217°
2026-05-06 18:17 50.41060 14.15294 8558 ft 266 kts 217°
2026-05-06 18:17 50.39576 14.13549 8101 ft 265 kts 217°
2026-05-06 18:18 50.38095 14.11809 7512 ft 265 kts 217°
2026-05-06 18:18 50.36615 14.10074 7116 ft 263 kts 217°
2026-05-06 18:18 50.35150 14.08352 6935 ft 264 kts 217°
2026-05-06 18:18 50.33700 14.06648 6623 ft 264 kts 217°
2026-05-06 18:19 50.32747 14.05524 6455 ft 261 kts 217°
2026-05-06 18:19 50.30916 14.03361 6282 ft 240 kts 217°
2026-05-06 18:19 50.30054 14.02340 6124 ft 233 kts 217°
2026-05-06 18:19 50.28197 14.00731 5480 ft 230 kts 196°
2026-05-06 18:20 50.27173 14.00305 5108 ft 231 kts 195°
2026-05-06 18:20 50.25607 13.99681 4587 ft 232 kts 194°
2026-05-06 18:20 50.24040 13.99170 4212 ft 226 kts 184°
2026-05-06 18:20 50.22504 13.99770 4092 ft 234 kts 145°
2026-05-06 18:21 50.21491 14.01624 3979 ft 218 kts 121°
2026-05-06 18:21 50.20732 14.03635 3884 ft 215 kts 123°
2026-05-06 18:21 50.19899 14.05592 3798 ft 214 kts 126°
2026-05-06 18:21 50.19049 14.07403 3690 ft 204 kts 128°
2026-05-06 18:22 50.18216 14.09140 3552 ft 197 kts 127°
2026-05-06 18:22 50.17412 14.10813 3318 ft 192 kts 127°
2026-05-06 18:22 50.16624 14.12450 3083 ft 185 kts 127°
2026-05-06 18:22 50.15869 14.14019 2852 ft 177 kts 127°
2026-05-06 18:23 50.15157 14.15499 2675 ft 162 kts 126°
2026-05-06 18:23 50.14510 14.16842 2446 ft 148 kts 126°
2026-05-06 18:23 50.13920 14.18067 2237 ft 136 kts 126°
2026-05-06 18:23 50.13341 14.19271 2058 ft 139 kts 126°
2026-05-06 18:24 50.12777 14.20440 1870 ft 135 kts 125°
2026-05-06 18:24 50.12206 14.21626 1686 ft 134 kts 125°
2026-05-06 18:24 50.11649 14.22782 1506 ft 133 kts 125°
2026-05-06 18:24 50.11099 14.23923 1326 ft 132 kts 125°
2026-05-06 18:25 50.10553 14.25056 1170 ft 128 kts 126°
2026-05-06 18:25 50.10218 14.25751 1188 ft 37 kts 129°
2026-05-06 18:25 50.10031 14.26121 1194 ft 43 kts 128°
2026-05-06 18:25 50.09878 14.26468 1209 ft 28 kts 108°
2026-05-06 18:26 50.09888 14.26753 1211 ft 27 kts 83°
2026-05-06 18:26 50.09905 14.26959 1208 ft 0 kts 82°
2026-05-06 18:29 50.09905 14.26961 1208 ft 1 kts 82°
2026-05-06 18:29 50.09912 14.27032 1207 ft 12 kts 80°
2026-05-06 18:30 50.09924 14.27119 1206 ft 6 kts 52°
2026-05-06 18:30 50.09959 14.27101 1205 ft 7 kts 310°
2026-05-06 18:30 50.10002 14.27012 1204 ft 13 kts 305°
2026-05-06 18:30 50.10067 14.26876 1201 ft 18 kts 307°
2026-05-06 18:31 50.10152 14.26698 1197 ft 23 kts 307°
2026-05-06 18:31 50.10251 14.26496 1194 ft 25 kts 306°
2026-05-06 18:31 50.10361 14.26262 1189 ft 28 kts 307°
2026-05-06 18:31 50.10462 14.26059 1185 ft 1 kts 309°
2026-05-06 18:33 50.10462 14.26058 1185 ft 1 kts 309°
2026-05-06 18:34 50.10497 14.25992 1184 ft 13 kts 314°
2026-05-06 18:34 50.10582 14.26027 1175 ft 17 kts 38°
2026-05-06 18:34 50.10692 14.26137 1177 ft 20 kts 33°
2026-05-06 18:34 50.10789 14.26241 1176 ft 8 kts 40°
2026-05-06 18:35 50.10794 14.26298 1175 ft 6 kts 109°
2026-05-06 18:35 50.10766 14.26364 1176 ft 4 kts 127°
2026-05-06 18:35 50.10749 14.26364 1177 ft 2 kts 210°
2026-05-06 18:35 50.10741 14.26356 1175 ft 2 kts 213°
2026-05-06 18:36 50.10740 14.26355 1175 ft 1 kts 213°
2026-05-06 18:36 50.10733 14.26348 1173 ft 0 kts 212°
2026-05-06 18:36 50.10726 14.26341 1174 ft 2 kts 212°
2026-05-06 18:36 50.10717 14.26332 1165 ft 2 kts 214°
2026-05-06 18:37 50.10714 14.26328 1162 ft 0 kts 214°